Location: Bidart
(43.4376°N, 1.5913°W)
Time: 00:18:05
(UTC+00:00)

Cosmos 1980 Rocket - Pass Details

Date: 19 May 2025
Orbit: 829 x 847 km, 71.0° (Epoch: 18 June)

Event Time Altitude Azimuth Distance (km) Brightness Sun altitude
Rises 20:46:18 0° 344° (NNW) 3,381 6.5 -12.2°
Reaches altitude 10° 20:49:18 10° 359° (N) 2,445 5.3 -12.6°
Maximum altitude 20:53:39 23° 50° (NE) 1,718 3.8 -13.2°
Enters shadow 20:57:29 12° 98° (E) 2,300 4.0 -13.7°
